[[{"header":{"parameterUnit":"m.s-1","parameterCategory":1,"la1":30.2991,"la2":30.254,"lo1":-89.0895,"lo2":-89.0444,"dy":0.0017,"dx":0.0017,"nx":28,"ny":28,"refTime":"2023-10-17T03:00:00:Z","depth":0,"parameterNumber":2,"parameterNumberName":"U-component_of_WINDS"},"data":[0,0,0,0,0,0,0,0,0,0,0,0,0,0,0,0,0,0,0,0,0,0,0,0,0,0,0,0,0,0,0,0,0,0,0,0,0,0,0,0,0,0,0,0,0,0,0,0,0,0,0,0,0,0,0,0,0,0,-1.5055,-1.5056,0,-1.5095,-1.5096,-1.5096,-1.5062,-1.5061,-1.506,-1.5058,-1.51,-1.5102,-1.5105,0,0,0,0,0,0,0,0,0,0,0,0,0,-1.4951,-1.4953,-1.5055,-1.5056,-1.5056,-1.5095,-1.5096,-1.5096,-1.5063,-1.5061,-1.5059,-1.5058,-1.5099,-1.5102,-1.5105,0,0,0,0,0,0,0,0,0,0,0,0,0,-1.4994,-1.4954,-1.5055,-1.5044,-1.5044,-1.5095,-1.5096,-1.5096,-1.5063,-1.5061,-1.5059,-1.5057,-1.5098,-1.5102,-1.5105,-1.517,0,0,-1.5116,-1.5118,0,0,0,0,0,0,0,0,-1.4992,-1.4998,-1.5045,-1.5045,-1.5044,-1.5072,-1.5074,-1.5121,-1.5064,-1.5056,-1.5058,-1.5056,-1.5092,-1.5096,-1.5108,-1.5172,-1.5173,-1.5117,-1.5119,-1.512,-1.5121,0,0,0,0,0,0,0,-1.4989,-1.4996,-1.5071,-1.5046,-1.5046,-1.5038,-1.5041,-1.5083,-1.5085,-1.5056,-1.5054,-1.5059,-1.5092,-1.5105,-1.5109,-1.5174,-1.5117,-1.512,-1.5122,-1.5123,-1.5293,-1.5295,0,0,0,0,0,0,-1.4987,-1.4994,-1.507,-1.5072,-1.5012,-1.5041,-1.5045,-1.5065,-1.5085,-1.5086,-1.5061,-1.5057,-1.51,-1.5105,-1.511,-1.5188,-1.512,-1.5124,-1.5126,-1.5291,-1.5294,-1.5296,0,0,0,0,0,0,-1.4985,-1.4994,-1.5068,-1.5032,-1.5041,-1.5045,-1.5068,-1.5067,-1.508,-1.5088,-1.5089,-1.5074,-1.5098,-1.5105,-1.5155,-1.5189,-1.5125,-1.5129,-1.5288,-1.5292,-1.5295,-1.5343,0,0,0,0,0,0,-1.4982,-1.4993,-1.5018,-1.5033,-1.5043,-1.5112,-1.507,-1.5069,-1.5086,-1.5082,-1.5101,-1.5102,-1.5097,-1.515,-1.5159,-1.5193,-1.5132,-1.5285,-1.529,-1.5294,-1.5339,-1.5348,-1.5356,0,0,0,0,0,-1.4978,-1.503,-1.5019,-1.5028,-1.5074,-1.5114,-1.512,-1.5114,-1.5089,-1.5114,-1.5119,-1.5101,-1.5184,-1.5156,-1.5165,-1.5201,-1.5283,-1.5288,-1.5293,-1.5335,-1.5346,-1.5356,0,0,0,0,0,0,-1.5018,-1.5032,-1.502,-1.5078,-1.5095,-1.5109,-1.514,-1.5126,-1.5151,-1.5146,-1.5137,-1.5142,-1.5195,-1.5202,-1.5171,-1.5265,-1.5229,-1.5237,-1.5258,-1.5269,-1.5277,-1.5275,-1.5135,0,0,0,0,0,-1.5034,-1.5065,-1.5075,-1.5125,-1.5135,-1.5136,-1.5153,-1.5147,-1.5164,-1.5172,-1.518,-1.5199,-1.5229,-1.5249,-1.5277,-1.5339,-1.5344,-1.5369,-1.5377,-1.5384,-1.5391,-1.5426,-1.5438,-1.5313,-1.5313,-1.5313,0,0,-1.5066,-1.5077,-1.5098,-1.5134,-1.5146,-1.518,-1.5142,-1.5179,-1.5204,-1.5177,-1.5226,-1.5233,-1.5252,-1.5309,-1.5335,-1.5317,-1.5426,-1.5391,-1.5396,-1.54,-1.5433,-1.5444,-1.5455,-1.5317,-1.5316,-1.5316,0,0,-1.5143,-1.5154,-1.5197,-1.5211,-1.523,-1.5231,-1.5241,-1.5257,-1.5261,-1.5309,-1.529,-1.5319,-1.5371,-1.5386,-1.5401,-1.5483,-1.5468,-1.5493,-1.5538,-1.5572,-1.5582,-1.5591,-1.5621,-1.5632,-1.5499,-1.5499,-1.5499,0,-1.5181,-1.523,-1.5221,-1.526,-1.5277,-1.5254,-1.5298,-1.5312,-1.534,-1.5352,-1.5332,-1.5397,-1.5409,-1.547,-1.549,-1.5502,-1.5514,-1.5491,-1.5581,-1.559,-1.5598,-1.5627,-1.5638,-1.5502,-1.5502,-1.5502,-1.5501,0,-1.5276,-1.5311,-1.5344,-1.5372,-1.5392,-1.5433,-1.5431,-1.5453,-1.5445,-1.5447,-1.5497,-1.551,-1.5541,-1.5554,-1.5546,-1.5614,-1.5603,-1.5582,-1.5547,-1.5613,-1.564,-1.5651,-1.5507,-1.5505,-1.5505,-1.5504,0,0,-1.538,-1.5402,-1.5415,-1.5428,-1.5448,-1.5474,-1.5515,-1.5545,-1.5564,-1.5584,-1.5618,-1.5663,-1.5644,-1.566,-1.5654,-1.5684,-1.575,-1.5659,-1.566,-1.5677,-1.5827,-1.5843,-1.5856,-1.5739,-1.5741,-1.5743,-1.5825,0,-1.5458,-1.5529,-1.5522,-1.5589,-1.5622,-1.5601,-1.5636,-1.5652,-1.5656,-1.5684,-1.5688,-1.572,-1.5692,-1.5702,-1.573,-1.5736,-1.578,-1.5729,-1.5772,-1.5774,-1.5769,-1.587,-1.5888,-1.5965,-1.5836,-1.5838,-1.5839,0,-1.5559,-1.5583,-1.5654,-1.5669,-1.5683,-1.5715,-1.5742,-1.5769,-1.5787,-1.5788,-1.5807,-1.5795,-1.5837,-1.5799,-1.5857,-1.5823,-1.5839,-1.5845,-1.5848,-1.5853,-1.5811,-1.5879,-1.599,-1.6002,-1.5856,-1.5854,-1.5853,0,-1.563,-1.5679,-1.5728,-1.5739,-1.5759,-1.5782,-1.5791,-1.5807,-1.5826,-1.585,-1.5862,-1.589,-1.5906,-1.5928,-1.5925,-1.5898,-1.5984,-1.5946,-1.5987,-1.5987,-1.6007,-1.6006,-1.6123,-1.6015,-1.6015,-1.6015,-1.6015,0,-1.5719,-1.5763,-1.576,-1.579,-1.5839,-1.5831,-1.588,-1.5887,-1.5901,-1.5933,-1.5916,-1.5945,-1.5939,-1.5969,-1.5966,-1.6015,-1.6022,-1.6024,-1.6023,-1.6027,-1.6027,-1.6039,-1.6034,-1.6018,-1.6017,-1.6017,-1.6016,0,-1.5806,-1.5806,-1.5858,-1.5872,-1.5876,-1.5912,-1.5924,-1.5953,-1.5955,-1.5995,-1.6004,-1.6007,-1.6042,-1.604,-1.6079,-1.6078,-1.6138,-1.613,-1.6132,-1.6131,-1.6172,-1.6168,-1.6302,-1.6319,-1.6199,-1.62,-1.6201,0,-1.5864,-1.5897,-1.5915,-1.5935,-1.5946,-1.5978,-1.5997,-1.599,-1.6011,-1.6035,-1.6061,-1.6094,-1.612,-1.6176,-1.6182,-1.6212,-1.6205,-1.625,-1.621,-1.6212,-1.6208,-1.6206,-1.621,-1.6258,-1.626,-1.6261,-1.6261,0,-1.5967,-1.5965,-1.5993,-1.6021,-1.6045,-1.6067,-1.6087,-1.6104,-1.6099,-1.6124,-1.6159,-1.6179,-1.6219,-1.6252,-1.628,-1.629,-1.6276,-1.6274,-1.6285,-1.629,-1.629,-1.6292,-1.6155,-1.6271,-1.627,-1.627,-1.6269,-1.6269,-1.6042,-1.6071,-1.6089,-1.6121,-1.6135,-1.6154,-1.6183,-1.6188,-1.6217,-1.6249,-1.6243,-1.6283,-1.6301,-1.6338,-1.635,-1.6381,-1.6365,-1.6381,-1.6385,-1.639,-1.6395,-1.6284,-1.6386,-1.6386,-1.6386,-1.6385,-1.6385,0,-1.6145,-1.6155,-1.6185,-1.6214,-1.6239,-1.6223,-1.6244,-1.6267,-1.6302,-1.6319,-1.6345,-1.6386,-1.6418,-1.6427,-1.6458,-1.6481,-1.6475,-1.649,-1.6489,-1.6491,-1.6407,-1.6395,-1.6494,-1.6494,-1.6494,-1.6494,-1.6494,-1.6494,-1.6202,-1.6251,-1.6251,-1.6308,-1.6317,-1.6356,-1.637,-1.6388,-1.6402,-1.6448,-1.6475,-1.648,-1.6495,-1.6527,-1.6556,-1.6557,-1.657,-1.6588,-1.6587,-1.6508,-1.6497,-1.6487,-1.6476,-1.659,-1.659,-1.6669,-1.667,-1.667]},{"header":{"parameterUnit":"m.s-1","parameterCategory":1,"la1":30.2991,"la2":30.254,"lo1":-89.0895,"lo2":-89.0444,"dy":0.0017,"dx":0.0017,"nx":28,"ny":28,"refTime":"2023-10-17T03:00:00:Z","depth":0,"parameterNumber":3,"parameterNumberName":"V-component_of_WINDS"},"data":[0,0,0,0,0,0,0,0,0,0,0,0,0,0,0,0,0,0,0,0,0,0,0,0,0,0,0,0,0,0,0,0,0,0,0,0,0,0,0,0,0,0,0,0,0,0,0,0,0,0,0,0,0,0,0,0,0,0,-2.5893,-2.5893,0,-2.59,-2.59,-2.59,-2.5847,-2.5845,-2.5844,-2.5843,-2.5848,-2.585,-2.5851,0,0,0,0,0,0,0,0,0,0,0,0,0,-2.5832,-2.5833,-2.5893,-2.5893,-2.5893,-2.59,-2.59,-2.59,-2.5847,-2.5845,-2.5844,-2.5842,-2.5848,-2.5849,-2.5851,0,0,0,0,0,0,0,0,0,0,0,0,0,-2.5851,-2.5834,-2.5893,-2.5868,-2.5865,-2.59,-2.59,-2.59,-2.5848,-2.5845,-2.5843,-2.5841,-2.5847,-2.5849,-2.5851,-2.5911,0,0,-2.5859,-2.586,0,0,0,0,0,0,0,0,-2.585,-2.5853,-2.5871,-2.587,-2.5867,-2.587,-2.5881,-2.5904,-2.5848,-2.5854,-2.5843,-2.584,-2.5857,-2.5859,-2.5865,-2.5911,-2.5911,-2.5859,-2.586,-2.5861,-2.5862,0,0,0,0,0,0,0,-2.5849,-2.5852,-2.5896,-2.5872,-2.5869,-2.5855,-2.5856,-2.5885,-2.5868,-2.5854,-2.585,-2.5851,-2.5856,-2.5863,-2.5864,-2.5911,-2.5859,-2.5861,-2.5862,-2.5863,-2.6007,-2.6009,0,0,0,0,0,0,-2.5851,-2.5852,-2.5896,-2.5896,-2.5853,-2.5858,-2.5859,-2.5872,-2.5868,-2.5865,-2.5853,-2.5849,-2.586,-2.5862,-2.5864,-2.5934,-2.5861,-2.5863,-2.5865,-2.6004,-2.6007,-2.601,0,0,0,0,0,0,-2.585,-2.5855,-2.5895,-2.5873,-2.5877,-2.5862,-2.5877,-2.5873,-2.588,-2.5868,-2.5864,-2.5864,-2.5858,-2.5861,-2.59,-2.5934,-2.5864,-2.5866,-2.6002,-2.6005,-2.6009,-2.6074,0,0,0,0,0,0,-2.5848,-2.5855,-2.5878,-2.5874,-2.5878,-2.5931,-2.5879,-2.5875,-2.5884,-2.5879,-2.5876,-2.5874,-2.5857,-2.5897,-2.5902,-2.5936,-2.5868,-2.5998,-2.6003,-2.6008,-2.6069,-2.6079,-2.6088,0,0,0,0,0,-2.5846,-2.5895,-2.5879,-2.5885,-2.5907,-2.5933,-2.5936,-2.5916,-2.5887,-2.591,-2.5902,-2.5874,-2.5929,-2.5901,-2.5907,-2.5941,-2.5996,-2.6002,-2.6007,-2.6064,-2.6077,-2.6088,0,0,0,0,0,0,-2.5903,-2.5894,-2.5876,-2.5926,-2.5931,-2.5924,-2.5952,-2.593,-2.5942,-2.5937,-2.591,-2.591,-2.5953,-2.5951,-2.592,-2.5999,-2.5958,-2.5964,-2.5999,-2.6011,-2.6021,-2.6021,-2.587,0,0,0,0,0,-2.5921,-2.5944,-2.5935,-2.598,-2.5983,-2.5967,-2.5978,-2.5962,-2.5966,-2.5968,-2.5963,-2.5967,-2.5985,-2.5998,-2.6014,-2.6068,-2.6067,-2.6094,-2.6104,-2.6112,-2.6119,-2.6148,-2.616,-2.6028,-2.6028,-2.6028,0,0,-2.5959,-2.5957,-2.5973,-2.5991,-2.5993,-2.6017,-2.5969,-2.5997,-2.6015,-2.5972,-2.6008,-2.6005,-2.6008,-2.6055,-2.6075,-2.6054,-2.6155,-2.6119,-2.6126,-2.6128,-2.6155,-2.6167,-2.6179,-2.6032,-2.6031,-2.603,0,0,-2.6041,-2.6042,-2.6079,-2.6082,-2.6086,-2.6076,-2.6085,-2.6082,-2.6078,-2.6115,-2.6083,-2.6103,-2.6135,-2.6139,-2.6145,-2.6229,-2.6205,-2.6235,-2.6287,-2.6316,-2.6326,-2.6336,-2.6366,-2.6378,-2.6242,-2.6242,-2.6242,0,-2.6087,-2.6123,-2.6101,-2.6131,-2.614,-2.6103,-2.6141,-2.6145,-2.6154,-2.6161,-2.6137,-2.6177,-2.6176,-2.6224,-2.6245,-2.6251,-2.626,-2.6236,-2.6327,-2.6336,-2.6344,-2.6373,-2.6385,-2.6246,-2.6245,-2.6245,-2.6244,0,-2.6181,-2.6206,-2.6236,-2.6247,-2.6259,-2.6292,-2.6275,-2.629,-2.6273,-2.6265,-2.6302,-2.63,-2.6316,-2.6326,-2.6309,-2.6372,-2.6359,-2.6331,-2.629,-2.6361,-2.6388,-2.6399,-2.6251,-2.625,-2.6248,-2.6248,0,0,-2.6298,-2.6297,-2.6308,-2.6313,-2.6315,-2.6334,-2.6366,-2.6382,-2.6396,-2.6403,-2.643,-2.6458,-2.6433,-2.644,-2.6423,-2.6448,-2.6516,-2.6418,-2.6418,-2.6437,-2.6586,-2.6607,-2.6621,-2.6499,-2.6501,-2.6503,-2.6586,0,-2.6379,-2.6435,-2.6416,-2.6472,-2.6496,-2.6461,-2.6489,-2.6494,-2.6487,-2.6505,-2.6497,-2.6518,-2.6483,-2.6487,-2.6511,-2.6503,-2.6546,-2.6497,-2.6524,-2.6525,-2.6526,-2.6634,-2.6657,-2.6735,-2.6596,-2.6598,-2.6599,0,-2.648,-2.6493,-2.6552,-2.6551,-2.6561,-2.6586,-2.66,-2.6618,-2.6622,-2.6615,-2.6624,-2.6602,-2.6633,-2.6591,-2.6634,-2.6601,-2.6611,-2.6609,-2.6611,-2.6614,-2.6567,-2.6641,-2.676,-2.6772,-2.6616,-2.6614,-2.6613,0,-2.6561,-2.6593,-2.6633,-2.6638,-2.6638,-2.6657,-2.6657,-2.6659,-2.667,-2.6682,-2.6689,-2.6703,-2.6712,-2.6724,-2.6706,-2.6677,-2.6752,-2.6708,-2.6748,-2.6748,-2.6766,-2.6765,-2.6889,-2.6771,-2.677,-2.677,-2.677,0,-2.6654,-2.6692,-2.667,-2.6695,-2.6736,-2.6714,-2.6755,-2.6752,-2.6754,-2.6777,-2.6747,-2.677,-2.6745,-2.6765,-2.6751,-2.6789,-2.6793,-2.6789,-2.6785,-2.6792,-2.6793,-2.6799,-2.6793,-2.6773,-2.6773,-2.6772,-2.6771,0,-2.6752,-2.6739,-2.678,-2.6777,-2.6777,-2.6808,-2.6804,-2.6827,-2.6818,-2.6848,-2.6853,-2.6839,-2.6861,-2.6845,-2.6867,-2.6857,-2.6908,-2.6896,-2.6907,-2.6904,-2.6945,-2.6942,-2.7078,-2.7095,-2.6965,-2.6966,-2.6967,0,-2.6812,-2.6841,-2.6841,-2.6855,-2.6858,-2.688,-2.6892,-2.6871,-2.6884,-2.6891,-2.6913,-2.6933,-2.6947,-2.6984,-2.6976,-2.6992,-2.6981,-2.7027,-2.6983,-2.699,-2.6983,-2.6982,-2.6985,-2.7037,-2.7038,-2.7039,-2.704,0,-2.6922,-2.6914,-2.6932,-2.6949,-2.6963,-2.6975,-2.6984,-2.6997,-2.6976,-2.6992,-2.7015,-2.7026,-2.7049,-2.7069,-2.7082,-2.7082,-2.7058,-2.7054,-2.7065,-2.7073,-2.7079,-2.7077,-2.6933,-2.7051,-2.705,-2.705,-2.7049,-2.7048,-2.7003,-2.7027,-2.7032,-2.7053,-2.7058,-2.7068,-2.7089,-2.7083,-2.7102,-2.712,-2.7106,-2.7133,-2.7137,-2.7152,-2.7155,-2.7176,-2.7157,-2.7172,-2.7175,-2.718,-2.7186,-2.7075,-2.7178,-2.7178,-2.7178,-2.7177,-2.7177,0,-2.7112,-2.7113,-2.7133,-2.7147,-2.7164,-2.7141,-2.715,-2.7166,-2.719,-2.7196,-2.7211,-2.7238,-2.7257,-2.7251,-2.7268,-2.7286,-2.7276,-2.7291,-2.729,-2.7291,-2.7202,-2.7192,-2.73,-2.73,-2.73,-2.73,-2.73,-2.73,-2.717,-2.721,-2.7203,-2.7246,-2.7246,-2.7274,-2.7281,-2.729,-2.7294,-2.7325,-2.7342,-2.7338,-2.7338,-2.7356,-2.7373,-2.737,-2.7378,-2.7398,-2.7392,-2.7309,-2.7297,-2.7285,-2.7276,-2.74,-2.74,-2.748,-2.748,-2.7481]}]]